Temp
11 10 11 12 11 11 11 11 11 11 11 11 11 11 11 11 10 10 10 10 9 8 9 9 9 9 9 9 9 9 9 9 9 9 9 9 10 9 9 9 9 8 9 9 10 9 9 9 9
10 10 11 12 12 12 11 12 11 11 11 11 11 10 11 10 10 11 10 9 9 9 9 9 9 9 9 9 9 9 9 9 9 9 9 9 10 9 9 9 8 9 9 9 9 9 9 9 9
10 11 11 12 11 11 11 12 12 11 10 11 11 11 10 10 10 10 10 9 9 9 9 9 9 9 9 9 9 9 9 9 9 9 9 9 9 9 9 9 9 9 9 9 9 9 10 10 9
10 11 11 11 11 12 11 11 11 10 10 10 11 10 10 9 8 9 10 9 9 8 9 9 9 9 9 9 9 9 9 9 9 9 8 8 9 9 9 9 9 9 10 9 9 9 9 9 9
9 10 9 9 10 11 10 12 11 11 11 11 11 10 9 8 7 7 9 9 9 9 9 9 9 9 9 9 9 9 9 9 8 8 8 9 8 9 9 9 9 9 10 9 9 9 9 9 10
10 9 9 10 11 11 11 11 11 11 11 11 11 10 9 8 7 8 7 9 8 8 9 9 9 9 9 9 9 9 8 8 8 7 7 8 8 9 9 9 9 9 9 9 9 9 9 9 9
9 8 9 10 11 11 11 11 12 11 11 11 10 10 9 8 7 8 8 8 8 8 8 9 9 8 9 8 9 9 8 8 7 7 7 8 8 9 9 9 9 9 9 9 9 9 9 9 8
9 8 9 10 10 11 11 12 12 11 11 11 10 10 10 8 7 8 8 8 8 8 8 8 8 8 8 8 9 8 8 7 7 7 7 8 8 8 9 9 9 8 9 9 9 9 9 8 7
9 8 9 10 11 11 10 11 11 10 11 10 10 10 9 9 8 8 8 8 8 8 8 8 8 8 8 8 8 8 8 7 7 7 7 7 8 8 8 9 8 8 8 9 9 9 9 8 7
9 9 9 10 10 10 11 10 11 11 10 10 10 10 9 9 8 8 8 8 8 8 8 8 7 8 8 8 8 8 7 7 7 7 7 8 8 8 9 8 8 8 9 9 9 9 8 7 8
9 9 9 8 9 9 10 10 11 11 9 10 10 10 9 8 8 8 8 8 8 8 8 7 7 7 8 8 8 8 7 7 8 7 8 8 8 8 9 8 9 9 9 9 9 8 8 7 8
10 9 9 8 9 9 9 10 9 11 10 10 10 9 9 8 8 8 8 8 8 8 8 7 7 7 7 7 7 7 7 7 8 8 8 8 8 9 9 10 9 9 9 9 8 8 9 8 8
11 9 9 9 9 9 9 10 10 10 10 10 10 9 9 8 8 8 8 8 8 7 7 7 7 6 7 6 6 6 7 7 7 8 8 9 9 10 10 10 9 9 9 9 8 8 8 8 9
11 10 9 9 9 9 9 10 10 9 10 10 10 9 9 9 8 8 8 8 8 8 8 7 7 7 7 7 7 8 8 8 8 9 9 9 10 10 10 10 9 9 9 9 8 9 9 9 9
11 9 9 9 9 9 9 9 9 9 9 10 9 9 9 9 8 8 8 8 8 8 8 8 7 7 7 8 7 8 8 8 8 9 9 9 10 10 10 10 9 8 9 9 9 9 9 9 9
10 10 9 9 10 9 10 9 9 9 9 9 9 9 9 9 8 8 8 8 8 8 8 9 8 8 7 7 8 7 7 8 9 9 10 9 9 9 9 9 9 9 10 10 10 9 9 10 9
11 11 10 9 9 10 10 9 9 9 9 9 9 9 9 8 9 8 8 8 8 8 9 9 9 8 8 8 8 8 8 9 9 9 10 9 8 9 9 9 9 10 11 10 10 10 9 9 9
12 12 11 10 9 9 9 10 11 9 9 9 9 9 9 9 9 9 9 8 8 8 8 9 9 9 8 8 8 8 8 8 9 10 9 8 8 8 9 9 9 10 11 11 11 10 9 9 9
13 14 12 11 10 10 10 10 10 10 10 10 10 10 10 9 9 9 10 9 8 8 9 9 8 8 8 8 9 9 9 9 9 9 9 10 9 9 9 10 10 11 11 10 10 10 10 10 9
13 14 13 11 10 10 10 11 10 10 10 10 10 10 10 10 9 9 9 9 9 8 8 9 9 9 8 7 8 8 8 8 8 9 9 9 10 10 10 10 10 10 10 10 10 10 10 9 9
13 13 13 12 11 11 11 10 10 10 11 10 10 10 10 10 10 9 9 9 9 9 8 9 9 9 9 8 8 8 8 9 8 10 10 10 9 9 10 9 9 10 10 10 10 10 9 9 9
14 15 13 13 12 11 11 12 12 12 12 11 10 10 10 10 10 10 10 9 9 9 8 8 8 8 9 9 8 9 8 9 9 9 8 9 9 9 10 10 10 10 10 10 10 9 10 9 9
16 15 14 13 12 11 10 11 14 12 12 12 11 11 10 10 10 10 10 10 10 9 9 9 8 8 8 8 9 8 9 9 8 8 9 9 9 10 10 10 9 10 10 10 10 10 9 10 10
16 16 14 12 11 11 12 11 14 14 15 13 12 11 11 10 10 10 10 10 10 9 10 9 9 8 8 9 8 8 9 9 8 8 9 9 9 10 11 10 10 10 10 9 10 10 10 10 9
16 16 14 11 10 9 12 10 13 14 14 14 12 12 11 10 11 10 11 10 10 10 10 10 9 9 8 9 9 9 9 8 9 8 9 9 9 10 10 10 10 10 10 9 10 10 9 10 9
16 15 15 12 9 10 11 11 14 15 14 13 12 12 12 11 11 11 11 10 9 10 10 10 9 9 9 9 9 9 9 9 8 9 9 9 10 9 10 10 10 10 10 9 9 9 9 10 10
16 15 16 16 13 12 11 13 14 14 13 13 13 13 12 12 11 11 11 11 10 10 10 10 9 8 9 9 9 9 9 9 8 8 8 9 9 8 9 10 10 10 10 10 9 9 9 10 10
16 16 15 16 12 10 11 12 13 13 13 13 13 12 11 11 11 11 11 11 10 10 10 9 10 9 9 9 8 9 9 9 9 8 7 8 9 9 8 8 9 9 9 10 10 9 9 10 10
16 16 16 16 15 9 8 12 15 14 14 13 12 12 11 11 11 11 11 11 10 10 10 10 10 10 9 9 9 9 9 9 9 9 9 9 8 9 8 8 9 10 9 9 10 10 9 10 10
16 16 16 16 15 14 13 13 14 14 13 13 12 11 11 11 11 11 11 10 10 9 9 9 10 9 9 9 9 9 9 10 9 9 9 9 9 9 9 8 8 9 9 9 9 10 10 10 10
Height
3170 3171 3170 3170 3174 3170 3169 3171 3170 3170 3169 3170 3172 3172 3172 3170 3171 3174 3171 3173 3174 3176 3178 3182 3184 3186 3187 3188 3190 3191 3193 3195 3196 3196 3196 3197 3198 3199 3199 3201 3202 3203 3204 3205 3205 3206 3206 3207 3207
3171 3172 3171 3170 3171 3169 3171 3170 3170 3170 3170 3171 3173 3172 3172 3172 3171 3170 3171 3172 3175 3176 3179 3180 3184 3185 3187 3188 3189 3191 3193 3195 3195 3196 3196 3197 3198 3200 3201 3201 3203 3204 3205 3205 3206 3207 3207 3208 3210
3172 3173 3173 3171 3171 3171 3172 3172 3171 3169 3171 3172 3172 3171 3171 3170 3170 3171 3172 3174 3175 3177 3178 3180 3182 3184 3186 3188 3190 3191 3193 3194 3194 3195 3197 3198 3198 3200 3202 3201 3202 3205 3207 3207 3208 3208 3208 3209 3210
3174 3175 3175 3172 3172 3172 3174 3173 3171 3169 3170 3171 3172 3171 3170 3168 3169 3171 3173 3174 3175 3177 3178 3179 3181 3183 3185 3187 3189 3191 3193 3194 3194 3196 3197 3199 3200 3198 3205 3204 3204 3206 3208 3209 3210 3210 3210 3211 3212
3176 3176 3174 3173 3172 3173 3173 3173 3171 3172 3173 3173 3172 3170 3169 3168 3169 3170 3172 3174 3175 3177 3178 3179 3181 3182 3184 3187 3189 3191 3192 3193 3195 3196 3198 3200 3200 3202 3206 3207 3206 3207 3209 3209 3211 3212 3214 3214 3215
3178 3178 3175 3176 3171 3172 3172 3173 3172 3175 3175 3175 3172 3170 3169 3170 3171 3171 3172 3173 3175 3176 3177 3178 3179 3182 3184 3186 3188 3190 3191 3192 3194 3196 3198 3200 3201 3204 3207 3207 3207 3208 3210 3211 3213 3214 3216 3218 3218
3179 3180 3178 3178 3173 3173 3175 3173 3175 3176 3176 3176 3174 3172 3171 3171 3172 3172 3173 3174 3175 3175 3176 3178 3179 3182 3185 3186 3187 3189 3190 3191 3193 3195 3197 3201 3203 3204 3207 3207 3208 3209 3212 3213 3215 3217 3219 3220 3218
3179 3168 3179 3177 3172 3174 3175 3174 3176 3177 3177 3176 3175 3174 3171 3172 3173 3174 3174 3175 3175 3175 3175 3176 3179 3181 3184 3186 3187 3188 3189 3189 3191 3195 3198 3201 3203 3207 3209 3209 3210 3211 3214 3215 3217 3219 3221 3220 3220
3178 3173 3177 3175 3175 3176 3175 3176 3176 3177 3175 3176 3175 3175 3174 3173 3174 3175 3175 3175 3173 3172 3172 3173 3177 3180 3183 3185 3187 3188 3189 3191 3193 3197 3200 3203 3206 3208 3209 3209 3210 3212 3214 3217 3218 3221 3221 3221 3221
3177 3169 3175 3172 3172 3171 3174 3176 3175 3175 3174 3175 3176 3176 3175 3175 3176 3176 3176 3175 3173 3169 3169 3171 3175 3180 3183 3185 3187 3188 3191 3193 3197 3199 3201 3204 3207 3207 3209 3208 3209 3211 3214 3218 3221 3222 3221 3223 3221
3173 3172 3169 3169 3167 3171 3172 3174 3173 3172 3175 3176 3177 3177 3176 3176 3177 3177 3177 3176 3173 3169 3167 3171 3176 3180 3183 3186 3188 3189 3193 3196 3198 3200 3203 3204 3206 3207 3209 3209 3212 3215 3217 3220 3220 3222 3222 3225 3224
3172 3169 3168 3166 3168 3171 3173 3174 3175 3174 3176 3178 3177 3178 3177 3177 3178 3179 3180 3179 3176 3172 3171 3174 3177 3180 3181 3185 3188 3190 3194 3198 3200 3201 3203 3204 3206 3208 3211 3212 3213 3215 3220 3222 3223 3224 3225 3226 3224
3168 3166 3168 3166 3167 3170 3173 3174 3174 3176 3176 3177 3178 3178 3179 3179 3180 3181 3181 3181 3181 3179 3177 3177 3179 3180 3184 3186 3189 3192 3196 3198 3200 3202 3203 3205 3208 3211 3212 3214 3215 3218 3220 3222 3224 3223 3224 3224 3224
3163 3164 3166 3167 3165 3169 3171 3174 3174 3177 3175 3177 3178 3177 3178 3180 3181 3182 3183 3182 3183 3184 3184 3183 3184 3186 3188 3191 3192 3195 3197 3199 3201 3203 3207 3209 3211 3212 3215 3216 3217 3218 3222 3222 3224 3224 3226 3226 3224
3167 3167 3168 3171 3171 3171 3174 3176 3175 3176 3178 3177 3177 3178 3179 3181 3181 3182 3184 3185 3186 3187 3188 3189 3190 3191 3192 3192 3194 3197 3199 3200 3202 3206 3208 3210 3210 3213 3216 3218 3219 3220 3221 3223 3225 3227 3227 3226 3228
3168 3170 3171 3172 3173 3174 3176 3175 3177 3176 3177 3179 3179 3179 3180 3182 3182 3183 3184 3185 3187 3188 3189 3191 3192 3193 3194 3196 3197 3200 3201 3202 3203 3206 3207 3208 3212 3213 3214 3217 3218 3220 3223 3223 3225 3225 3226 3227 3227
3168 3169 3171 3172 3173 3176 3177 3174 3177 3177 3178 3179 3180 3180 3180 3183 3183 3184 3184 3185 3187 3188 3190 3192 3193 3194 3197 3199 3201 3202 3204 3205 3206 3207 3206 3210 3211 3214 3215 3216 3218 3220 3222 3223 3225 3225 3227 3227 3227
3169 3170 3170 3170 3171 3174 3175 3174 3173 3177 3177 3178 3180 3182 3183 3184 3184 3183 3184 3185 3186 3188 3190 3190 3193 3195 3197 3199 3201 3202 3204 3204 3206 3208 3208 3210 3212 3214 3216 3218 3219 3219 3222 3222 3223 3225 3226 3227 3227
3172 3171 3171 3169 3169 3171 3171 3172 3172 3174 3176 3177 3178 3179 3181 3182 3184 3183 3183 3184 3184 3186 3188 3191 3194 3196 3197 3199 3200 3202 3204 3204 3206 3207 3209 3211 3211 3213 3216 3218 3220 3221 3222 3219 3222 3223 3224 3225 3226
3171 3169 3170 3170 3169 3170 3169 3169 3171 3171 3172 3173 3174 3175 3176 3178 3180 3181 3180 3183 3184 3186 3186 3190 3192 3194 3197 3197 3200 3202 3202 3205 3206 3207 3208 3209 3213 3214 3216 3218 3218 3220 3220 3219 3222 3223 3222 3224 3225
3165 3168 3167 3168 3168 3169 3168 3169 3168 3167 3167 3166 3169 3171 3174 3175 3177 3178 3179 3180 3183 3183 3187 3189 3192 3194 3197 3198 3199 3201 3201 3204 3205 3206 3207 3210 3211 3212 3215 3215 3217 3219 3220 3220 3221 3222 3222 3222 3224
3163 3164 3166 3165 3167 3167 3168 3166 3164 3162 3160 3162 3163 3166 3168 3172 3175 3176 3177 3179 3181 3183 3186 3188 3191 3193 3196 3197 3199 3200 3202 3205 3207 3208 3207 3208 3211 3212 3213 3213 3216 3218 3219 3220 3220 3220 3221 3221 3222
3160 3160 3160 3162 3165 3168 3167 3166 3160 3159 3157 3158 3160 3162 3166 3170 3173 3175 3177 3180 3181 3182 3186 3189 3191 3192 3194 3196 3199 3200 3202 3204 3205 3206 3207 3209 3209 3211 3212 3213 3215 3217 3218 3218 3218 3218 3220 3220 3222
3159 3160 3159 3164 3170 3169 3166 3164 3152 3152 3153 3154 3157 3159 3164 3168 3172 3173 3175 3178 3180 3183 3185 3188 3188 3190 3192 3194 3196 3199 3201 3203 3204 3205 3206 3207 3208 3210 3211 3214 3215 3216 3217 3216 3217 3218 3218 3219 3220
3156 3157 3160 3167 3166 3164 3161 3163 3153 3151 3153 3154 3155 3158 3161 3166 3170 3170 3173 3176 3178 3180 3184 3186 3185 3187 3189 3192 3194 3196 3199 3201 3202 3204 3206 3207 3207 3209 3210 3212 3213 3213 3214 3213 3214 3215 3217 3219 3219
3153 3154 3155 3161 3162 3156 3158 3156 3151 3150 3152 3153 3154 3157 3161 3165 3167 3168 3171 3174 3177 3179 3180 3183 3184 3184 3187 3190 3193 3195 3197 3198 3199 3203 3204 3205 3206 3206 3207 3209 3211 3211 3211 3212 3212 3213 3215 3216 3217
3149 3150 3153 3152 3152 3154 3155 3152 3149 3149 3151 3152 3154 3156 3159 3162 3165 3167 3170 3171 3172 3173 3176 3177 3181 3183 3185 3186 3190 3193 3195 3196 3196 3198 3200 3202 3204 3205 3207 3207 3208 3210 3210 3210 3211 3211 3212 3214 3215
3145 3149 3149 3149 3152 3157 3152 3150 3148 3149 3149 3151 3154 3155 3157 3161 3164 3166 3168 3169 3168 3171 3172 3173 3176 3179 3181 3182 3186 3190 3193 3193 3194 3195 3196 3198 3201 3204 3204 3205 3207 3208 3209 3209 3209 3209 3210 3211 3213
3142 3143 3145 3147 3147 3150 3155 3147 3142 3145 3147 3149 3153 3154 3156 3158 3160 3164 3165 3164 3165 3167 3167 3168 3171 3176 3176 3178 3180 3183 3187 3190 3190 3190 3193 3194 3197 3200 3202 3204 3204 3205 3206 3207 3207 3207 3209 3210 3211
3139 3139 3141 3141 3143 3143 3143 3140 3140 3143 3146 3149 3151 3154 3155 3157 3158 3160 3160 3158 3160 3162 3163 3164 3167 3168 3171 3173 3176 3177 3180 3182 3185 3187 3189 3191 3193 3195 3197 3200 3201 3202 3203 3204 3205 3205 3206 3207 3208
Wind_Speed
3 4 7 1 2 5 6 8 12 11 10 6 8 7 10 8 10 4 16 18 20 18 18 14 12 11 10 10 9 10 9 9 7 8 7 8 8 8 8 8 9 9 11 11 13 14 13 14 15
1 2 3 7 7 5 8 9 9 7 4 7 4 5 8 8 9 8 19 21 18 19 15 16 13 12 11 10 9 9 8 5 5 4 8 9 8 8 8 8 11 11 12 13 13 14 15 16 17
4 5 8 6 4 8 11 6 4 4 2 5 7 6 7 6 11 12 16 18 18 16 13 17 14 13 10 8 10 6 6 5 4 3 9 9 14 10 5 10 15 13 14 14 15 15 16 16 17
4 6 4 3 4 5 1 10 15 11 8 6 3 7 6 10 8 15 18 16 16 16 13 14 14 13 10 9 11 10 7 5 4 5 11 13 12 15 7 14 17 16 16 16 17 17 16 15 16
4 10 6 8 4 5 16 11 8 11 8 5 5 7 3 7 10 14 17 17 16 15 14 13 13 13 13 12 12 10 8 7 5 12 12 13 17 14 11 12 16 17 17 18 18 18 17 15 17
4 16 4 9 1 7 12 8 9 5 1 4 7 4 11 13 10 11 13 14 15 13 12 12 13 13 12 11 11 12 8 8 9 15 15 16 18 16 12 14 17 18 18 18 18 17 17 19 18
5 6 13 4 3 12 17 4 7 5 2 4 10 3 14 14 10 10 10 10 11 13 14 14 15 14 14 13 10 10 11 12 16 19 17 20 20 15 15 17 19 19 18 18 18 19 20 19 18
15 6 14 2 12 9 12 6 3 2 3 8 7 3 10 15 13 11 12 11 10 11 15 16 16 15 13 13 14 13 12 16 20 20 19 20 17 16 16 19 19 18 18 19 20 22 21 19 16
19 9 15 10 11 8 12 9 6 2 3 2 8 6 11 15 13 12 11 8 4 3 12 18 18 16 17 15 15 13 18 20 21 20 19 19 13 16 17 19 19 20 19 21 24 23 19 18 12
12 10 7 13 7 14 11 12 6 8 7 5 3 4 8 14 13 8 8 8 7 2 9 16 20 18 17 13 14 18 18 20 19 19 17 17 16 16 19 20 21 22 22 22 23 22 20 17 7
12 15 16 8 24 20 11 7 17 13 11 4 6 6 8 10 10 8 5 8 12 8 13 18 22 19 17 17 19 24 22 21 21 22 18 19 18 20 20 21 21 20 20 22 23 20 18 13 5
12 7 6 10 22 9 6 11 14 9 3 1 5 3 9 9 11 10 8 11 16 16 15 18 21 20 21 25 25 22 23 21 22 21 17 20 21 21 19 21 21 20 17 17 17 15 13 6 4
14 1 3 3 20 10 9 11 12 7 2 2 8 8 9 7 8 8 8 11 13 19 21 20 24 27 26 25 27 24 21 21 17 20 18 21 19 18 19 20 18 18 16 14 13 13 10 9 2
7 6 5 8 9 15 15 11 11 7 4 3 1 6 6 6 3 3 5 10 12 13 18 22 23 27 27 23 22 19 20 19 15 20 22 15 16 17 15 16 16 16 13 16 15 13 11 6 1
10 7 2 3 12 4 13 13 17 21 9 5 4 7 2 5 4 2 6 5 8 8 14 17 21 20 19 21 19 20 20 17 19 18 16 13 16 12 14 13 15 12 18 16 14 10 2 5 3
7 1 5 3 4 8 11 11 15 23 15 11 7 9 3 3 2 0 4 6 7 7 12 17 17 15 16 20 19 16 15 17 17 15 16 13 10 12 16 17 16 14 15 17 15 8 4 5 4
8 6 3 3 12 8 9 16 17 18 17 19 17 13 11 9 4 3 6 5 9 8 11 13 16 17 18 17 15 21 20 18 17 17 16 18 13 13 16 14 18 14 12 14 10 7 9 7 3
6 6 3 1 16 12 13 15 19 22 15 18 16 14 15 8 7 6 8 7 6 3 4 5 14 17 18 16 16 20 25 13 14 18 16 12 14 12 12 14 19 16 14 10 7 12 11 7 3
5 11 1 3 11 9 11 14 25 24 21 19 25 20 11 8 8 5 5 4 5 4 2 3 9 12 16 17 17 17 19 14 17 16 17 15 14 12 16 15 14 10 10 8 6 8 8 4 4
14 4 6 5 14 10 13 9 27 24 18 17 22 18 17 13 10 12 11 5 5 2 2 2 4 11 13 16 10 16 13 14 17 18 16 12 13 16 17 14 11 9 10 7 10 9 7 5 7
21 14 9 9 16 13 7 11 22 26 22 24 24 23 22 14 15 11 13 13 11 5 3 1 2 8 12 16 16 18 17 15 14 14 15 15 12 11 13 12 10 13 12 11 12 9 8 6 4
19 11 14 12 19 8 14 4 15 21 23 26 31 31 28 24 19 18 14 16 10 11 9 6 4 5 13 17 20 19 18 16 14 13 12 13 14 14 13 14 13 16 13 14 12 10 8 8 2
18 18 19 18 20 7 15 3 5 20 28 31 33 30 32 26 21 16 18 12 12 10 15 11 8 6 11 19 19 22 19 15 19 16 17 16 13 14 14 14 13 13 15 14 12 11 10 9 7
13 11 6 22 5 7 12 14 10 19 12 20 26 25 23 22 20 19 15 17 14 15 13 12 8 9 9 13 18 18 17 17 17 16 15 14 17 17 14 17 14 13 13 13 14 12 12 11 9
14 14 6 5 5 9 11 14 24 13 13 9 17 20 19 20 18 19 17 15 19 18 14 16 10 9 7 11 16 18 17 18 18 16 15 18 18 18 15 16 16 14 13 14 16 16 13 12 10
10 8 6 5 4 5 6 11 10 10 12 9 6 10 14 20 20 19 17 17 13 21 18 13 9 7 6 8 13 16 20 21 19 19 18 18 17 16 18 18 17 13 10 10 14 17 17 15 13
21 12 10 9 5 5 5 7 7 13 11 10 11 16 17 17 17 21 22 20 21 17 17 18 26 16 5 4 11 16 22 20 22 20 16 17 17 19 17 17 17 16 12 10 10 11 14 15 14
20 13 7 6 1 1 5 4 7 15 13 15 17 17 18 16 17 11 11 14 21 14 13 14 29 22 15 9 10 14 19 20 21 25 25 22 20 21 20 16 15 14 14 14 12 10 11 11 12
20 17 17 13 5 7 4 9 20 18 15 12 17 18 15 12 11 8 10 11 16 11 11 12 20 28 21 22 20 17 18 21 23 26 26 25 22 18 15 17 16 14 16 16 15 13 12 11 10
17 20 17 19 6 4 7 9 17 13 20 16 22 23 23 16 9 10 6 8 13 16 15 18 21 27 24 28 25 23 22 22 22 24 24 22 19 18 15 20 19 14 16 17 15 15 14 13 12
Wind_Direction
51 35 338 73 107 120 132 110 138 117 149 162 175 174 186 165 173 233 174 164 163 170 172 178 174 174 171 166 164 160 153 168 160 178 169 176 171 164 157 156 137 124 112 115 112 117 124 119 114
338 309 58 115 86 97 116 139 156 191 210 141 153 158 188 201 207 169 170 169 158 167 185 179 182 180 182 185 190 177 154 161 164 161 182 176 172 176 171 156 143 124 121 117 117 120 119 115 106
67 74 138 125 44 97 143 138 143 143 94 318 310 225 214 205 190 178 171 172 172 177 184 188 188 191 196 212 200 192 173 170 196 181 172 176 157 133 139 140 141 128 119 123 124 121 115 108 103
11 13 158 153 20 69 22 131 154 166 184 207 305 288 240 189 182 178 160 164 172 178 175 196 202 204 206 191 187 188 184 195 208 155 171 157 152 127 170 133 128 129 125 126 126 122 114 106 101
43 58 154 223 59 57 123 172 175 173 193 212 291 279 193 143 156 179 180 175 181 187 187 193 201 199 203 200 191 197 200 209 199 160 164 165 134 138 140 138 127 124 128 128 123 115 111 108 103
12 25 191 168 87 51 147 195 168 188 57 316 344 208 113 112 129 151 165 176 171 181 194 193 187 192 192 189 199 192 202 194 175 171 160 160 146 141 139 138 126 130 130 122 118 116 116 112 105
333 329 113 187 27 118 144 209 252 272 46 35 26 215 134 132 155 154 157 163 182 191 197 201 196 194 187 178 181 175 164 164 160 161 161 159 149 151 151 134 133 132 125 119 118 116 115 112 108
324 280 171 178 163 122 148 252 249 186 82 12 34 51 135 144 128 139 137 145 168 195 203 191 189 185 182 175 175 162 161 162 157 157 161 157 161 159 141 138 134 124 122 122 120 117 117 109 99
325 282 208 187 174 162 100 152 159 126 306 76 72 74 116 117 116 118 117 104 79 210 202 192 184 176 173 172 162 162 152 144 150 154 166 159 153 156 149 140 131 125 128 129 125 124 123 104 88
320 293 276 259 202 164 122 139 219 210 213 130 56 54 121 113 110 99 99 81 43 7 192 182 172 166 155 164 168 157 155 151 152 160 146 155 160 157 154 143 135 139 138 133 131 133 129 118 119
318 305 304 243 163 149 112 98 201 210 194 303 3 349 134 115 110 86 101 78 53 81 146 161 158 152 162 171 164 160 156 141 142 154 156 158 165 165 159 147 140 142 138 139 137 143 136 133 99
315 334 29 176 179 165 143 122 168 240 214 274 333 114 125 118 110 105 116 100 72 75 121 138 148 158 167 171 162 158 152 145 147 154 160 167 172 165 159 147 149 142 139 142 144 141 148 141 84
308 171 231 139 184 169 143 143 174 191 200 251 332 126 94 111 103 121 129 112 99 91 98 132 142 149 152 148 150 146 152 146 154 172 178 170 170 160 159 152 141 136 143 145 152 140 161 164 115
14 1 228 282 207 153 133 136 147 137 203 306 142 125 68 36 323 212 130 112 119 112 111 117 129 135 132 139 147 155 158 161 170 175 166 164 172 158 160 149 146 147 163 152 156 149 151 169 255
29 66 102 133 171 181 152 140 144 163 169 324 169 165 36 15 318 197 173 131 153 130 146 135 148 154 160 158 163 160 164 166 165 161 169 160 168 160 164 170 161 151 161 167 164 149 114 281 255
297 164 192 188 188 177 188 200 165 177 165 204 209 209 229 69 47 298 229 146 183 168 159 155 155 166 153 155 160 159 163 164 168 162 165 152 183 160 163 171 175 185 175 182 173 192 96 258 34
97 144 163 222 195 208 182 176 178 187 180 198 201 214 241 220 193 245 185 185 137 149 169 166 162 172 175 174 183 166 170 174 167 166 171 154 138 169 183 172 170 182 181 183 177 168 222 244 269
42 137 172 212 195 202 201 214 199 190 188 201 203 229 234 221 250 282 205 196 153 136 210 159 178 177 176 190 198 179 177 165 170 163 176 156 155 160 169 183 187 183 190 186 173 195 211 210 258
50 68 103 188 177 206 208 215 186 192 215 218 216 228 218 218 254 233 204 138 166 233 259 230 186 203 178 192 193 179 181 186 176 177 179 179 164 173 172 175 186 191 198 162 200 213 226 244 271
247 261 128 168 169 200 205 192 191 207 217 222 219 221 209 225 236 221 234 207 183 200 333 261 188 203 191 189 190 189 187 178 185 182 176 193 183 176 179 184 183 200 214 184 204 208 216 254 252
243 238 181 221 186 202 193 207 201 213 222 226 223 231 224 232 230 223 229 245 227 185 209 114 186 216 214 198 207 193 203 210 201 184 172 187 190 199 191 184 190 213 208 204 215 214 215 216 221
256 277 206 237 204 191 212 220 218 221 215 218 224 230 232 228 230 232 245 236 236 223 214 220 232 212 215 209 211 223 221 229 208 199 198 191 199 200 204 197 206 220 209 213 211 218 226 214 229
287 299 228 217 218 218 202 264 230 230 233 228 216 224 225 229 234 246 245 242 240 222 224 214 203 223 223 227 218 214 213 201 198 202 208 192 195 198 202 201 213 226 213 214 214 224 218 210 200
278 283 228 212 241 340 308 227 248 243 273 242 220 219 217 216 226 240 252 243 239 219 220 212 205 219 247 237 233 222 228 222 213 218 209 203 198 204 204 220 221 217 217 222 216 210 212 206 206
255 260 161 156 186 219 263 219 269 270 246 237 241 231 209 217 219 221 242 247 225 215 230 228 219 205 231 255 242 234 231 229 220 223 218 210 211 208 201 212 212 216 227 220 212 208 212 205 205
231 267 213 200 193 242 175 237 248 245 213 228 262 241 219 208 212 223 243 227 233 228 256 234 188 179 217 245 253 247 235 221 217 214 215 222 220 218 211 213 215 213 218 209 212 221 219 214 214
236 249 246 310 299 172 210 250 247 175 167 180 192 191 206 218 225 239 239 257 242 216 221 230 225 213 204 230 252 250 240 227 217 220 233 234 228 223 220 222 221 222 215 203 199 212 214 208 224
233 239 249 279 60 32 321 251 195 194 192 179 194 179 193 203 219 252 238 252 244 211 262 272 222 215 213 216 247 249 249 240 227 224 233 236 234 227 219 222 229 231 241 232 207 206 208 208 207
217 227 243 255 230 161 165 245 251 200 202 196 195 182 204 209 194 253 264 227 208 233 248 231 214 223 229 228 225 222 240 246 229 226 229 233 234 235 232 229 219 238 237 239 236 221 218 219 221
243 239 240 241 232 181 213 240 195 218 196 195 193 201 200 213 240 273 248 222 223 246 244 244 229 223 241 229 230 226 223 229 237 230 229 231 227 231 224 228 248 260 238 233 231 224 217 220 219